星链-35180 (STARLINK-35180)

导读 | 豆包AI

STARLINK-35180是美国太空探索技术公司(SpaceX)于2025年9月3日发射的星链低轨通信卫星,隶属于星链全球互联网星座项目。该卫星采用Starlink V1.0平台设计,运行在近地轨道近地点约482公里处,轨道倾角43°,周期约94.3分钟。 作为星链星座组网卫星,它搭载Ku/Ka波段通信载荷与霍尔推进系统,旨在为全球提供高速低延迟宽带服务,助力缩小数字鸿沟,同时也可为特殊行业通信提供支撑,设计寿命约5至7年,寿命末期将主动离轨销毁。

基本信息
目录编号:
65462
目录名称:
STARLINK-35180
国际标识:
2025-195E
轨道中心:
EARTH
卫星名称:
星链-35180
卫星全名:
星链-35180 (STARLINK-35180)
卫星状态:
在轨 (已飞行213 天)
发射日期:
2025-09-03 UTC
国别 :
美国 (US)
星等 :
--
轨道信息
数据来源 国际轨道数据 AOE轨道数据
星历时间 2026-04-03T18:53:05+0800
1天前
查看轨道信息
2026-04-02T08:00:00+0800
2天前
查看轨道信息
半长轴 6853.397km 6853.34km
偏心率 0.0001455 0.0001245
轨道倾角 53.159° 53.163°
近地点辐角 75.600° 43.058°
升交点赤经 143.264° 150.023°
平近点角 284.516° 225.513°
近地点 474.262km 474.349km
远地点 476.258km 476.057km
周期 94.106分钟 94.105分钟
每日圈数 15.301851 15.302041
详细信息
固有亮度:
5
最大亮度:
2.5
卫星平台:
Starlink V1.0
覆盖范围:
全球
运营商:
太空探索技术公司
运营商所在国:
美国
制造商(研发单位):
太空探索技术公司
制造商所在国:
美国
使用方式:
暂无
卫星简介
Starlink 计划是 SpaceX 推出的全球卫星互联网项目,通过发射低轨道卫星,为全球尤其是偏远地区提供高速、低延迟的互联网服务。自 2019 年起,Starlink 已部署数千颗卫星,旨在缩小全球数字鸿沟,推动互联网普及。该项目还为军事、航空等行业提供通信支持,带来广泛经济效益。
2D轨道图
3D轨道图
轨道高度分析图
轨道倾角分析图
轨道综合分析图
查看轨道综合分析图